This demonstration page uses our WeatherBlox Daily Observations layout. Learn more.

Hourly Observations for August 14, 2015

Temp ( °F °C ) Dew Point ( °F °C ) Humidity (%) Winds ( mph kmh ) Pressure ( in mb ) Visibility ( mi km ) Precip ( " mm )
12:15 am 00:15 Clear 72 22 63 17 73 73 Calm 29.97 1015 10 16.09344 0 0
12:35 am 00:35 Clear 70 21 63 17 78 78 W 3 6 29.97 1015 10 16.09344 0 0
12:55 am 00:55 Clear 68 20 63 17 83 83 NNE 12 19 30.06 1018 10 16.09344 0 0
1:15 am 01:15 Clear 66 19 63 17 88 88 NE 10 17 30.06 1018 10 16.09344 0 0
1:35 am 01:35 Clear 66 19 63 17 88 88 E 6 9 30.06 1018 10 16.09344 0 0
1:55 am 01:55 Clear 68 20 63 17 83 83 E 7 11 30.06 1018 10 16.09344 0 0
2:15 am 02:15 Clear 66 19 63 17 88 88 ESE 6 9 30.03 1017 10 16.09344 0 0
2:35 am 02:35 Clear 64 18 61 16 88 88 E 5 7 30.06 1018 10 16.09344 0 0
2:55 am 02:55 Clear 66 19 61 16 83 83 SE 5 7 30.03 1017 10 16.09344 0 0
3:15 am 03:15 Clear 64 18 61 16 88 88 S 5 7 30.06 1018 10 16.09344 0 0
3:35 am 03:35 Clear 66 19 61 16 83 83 Calm 30.06 1018 10 16.09344 0 0
3:55 am 03:55 Clear 64 18 61 16 88 88 Calm 30.06 1018 10 16.09344 0 0
4:15 am 04:15 Clear 64 18 61 16 88 88 SE 5 7 30.06 1018 10 16.09344 0 0
4:35 am 04:35 Clear 64 18 61 16 88 88 SSE 5 7 30.06 1018 10 16.09344 0 0
4:55 am 04:55 Clear 64 18 61 16 88 88 SSE 3 6 30.06 1018 10 16.09344 0 0
5:15 am 05:15 Clear 66 19 61 16 83 83 S 6 9 30.06 1018 10 16.09344 0 0
5:35 am 05:35 Clear 64 18 61 16 88 88 S 3 6 30.06 1018 10 16.09344 0 0
5:55 am 05:55 Clear 66 19 61 16 83 83 S 6 9 30.06 1018 10 16.09344 0 0
6:15 am 06:15 Clear 66 19 61 16 83 83 S 3 6 30.06 1018 10 16.09344 0 0
6:35 am 06:35 Clear 66 19 61 16 83 83 SSW 3 6 30.06 1018 10 16.09344 0 0
6:55 am 06:55 Sunny 66 19 61 16 83 83 S 5 7 30.06 1018 10 16.09344 0 0
7:15 am 07:15 Mostly Cloudy 68 20 63 17 83 83 S 5 7 30.06 1018 10 16.09344 0 0
7:35 am 07:35 Partly Cloudy 66 19 63 17 88 88 SSE 3 6 30.06 1018 10 16.09344 0 0
7:55 am 07:55 Partly Cloudy 68 20 63 17 83 83 Calm 30.06 1018 10 16.09344 0 0
8:15 am 08:15 Mostly Cloudy 68 20 63 17 83 83 SSE 3 6 30.06 1018 10 16.09344 0 0
8:35 am 08:35 Partly Cloudy 70 21 64 18 83 83 SE 6 9 30.03 1017 10 16.09344 0 0
8:55 am 08:55 Sunny 72 22 64 18 78 78 SE 3 6 30.03 1017 10 16.09344 0 0
9:15 am 09:15 Sunny 72 22 64 18 78 78 SSE 5 7 30.03 1017 10 16.09344 0 0
9:35 am 09:35 Sunny 73 23 64 18 74 74 SSE 6 9 30.03 1017 10 16.09344 0 0
9:55 am 09:55 Sunny 75 24 64 18 69 69 S 5 7 30.03 1017 10 16.09344 0 0
10:15 am 10:15 Sunny 75 24 64 18 69 69 SSE 6 9 30.03 1017 10 16.09344 0 0
10:35 am 10:35 Sunny 77 25 64 18 65 65 S 6 9 30 1016 10 16.09344 0 0
10:55 am 10:55 Sunny 79 26 64 18 61 61 SSE 5 7 30 1016 10 16.09344 0 0
11:15 am 11:15 Sunny 79 26 66 19 65 65 SSW 3 6 30 1016 10 16.09344 0 0
11:35 am 11:35 Sunny 81 27 66 19 62 62 Calm 30 1016 10 16.09344 0 0
11:55 am 11:55 Sunny 81 27 68 20 66 66 SSE 5 7 30 1016 10 16.09344 0 0
12:15 pm 12:15 Sunny 82 28 68 20 62 62 S 6 9 30 1016 10 16.09344 0 0
12:35 pm 12:35 Sunny 82 28 68 20 62 62 SSE 6 9 30 1016 10 16.09344 0 0
12:55 pm 12:55 Sunny 82 28 68 20 62 62 SSE 8 13 30 1016 10 16.09344 0 0
1:15 pm 13:15 Sunny 84 29 68 20 58 58 SE 7 11 29.97 1015 10 16.09344 0 0
1:35 pm 13:35 Sunny 84 29 68 20 58 58 SE 6 9 29.97 1015 10 16.09344 0 0
1:55 pm 13:55 Partly Cloudy 84 29 68 20 58 58 SSE 9 15 29.97 1015 10 16.09344 0 0
2:15 pm 14:15 Sunny 86 30 68 20 55 55 SE 9 15 29.97 1015 10 16.09344 0 0
2:35 pm 14:35 Sunny 86 30 66 19 52 52 SE 7 11 29.97 1015 10 16.09344 0 0
2:55 pm 14:55 Sunny 86 30 66 19 52 52 SE 9 15 29.97 1015 10 16.09344 0 0
3:15 pm 15:15 Sunny 86 30 66 19 52 52 SE 10 17 29.97 1015 10 16.09344 0 0
3:35 pm 15:35 Partly Cloudy 86 30 66 19 52 52 SSE 10 17 29.97 1015 10 16.09344 0 0
3:55 pm 15:55 Partly Cloudy 86 30 66 19 52 52 SSE 10 17 29.97 1015 10 16.09344 0 0
4:15 pm 16:15 Partly Cloudy 88 31 64 18 46 46 S 14 22 29.97 1015 10 16.09344 0 0
4:35 pm 16:35 Sunny 88 31 64 18 46 46 SSE 10 17 29.97 1015 10 16.09344 0 0
4:55 pm 16:55 Sunny 86 30 66 19 52 52 SSE 10 17 29.97 1015 10 16.09344 0 0
5:15 pm 17:15 Sunny 88 31 66 19 49 49 SSE 9 15 29.97 1015 10 16.09344 0 0
5:35 pm 17:35 Sunny 88 31 66 19 49 49 SSE 10 17 29.97 1015 10 16.09344 0 0
5:55 pm 17:55 Sunny 88 31 66 19 49 49 SSE 9 15 29.97 1015 10 16.09344 0 0
6:15 pm 18:15 Sunny 86 30 66 19 52 52 SSE 10 17 29.97 1015 10 16.09344 0 0
6:35 pm 18:35 Sunny 86 30 66 19 52 52 SE 8 13 29.97 1015 10 16.09344 0 0
6:55 pm 18:55 Sunny 86 30 68 20 55 55 SE 8 13 29.94 1014 10 16.09344 0 0
7:15 pm 19:15 Sunny 84 29 66 19 55 55 SE 10 17 29.94 1014 10 16.09344 0 0
7:35 pm 19:35 Sunny 84 29 68 20 58 58 SE 7 11 29.94 1014 10 16.09344 0 0
7:55 pm 19:55 Sunny 82 28 68 20 62 62 ESE 7 11 29.94 1014 10 16.09344 0 0
8:15 pm 20:15 Sunny 79 26 68 20 70 70 ESE 8 13 29.97 1015 10 16.09344 0 0
8:35 pm 20:35 Sunny 77 25 68 20 74 74 ESE 7 11 29.97 1015 10 16.09344 0 0
8:55 pm 20:55 Clear 75 24 68 20 78 78 ESE 7 11 30.03 1017 10 16.09344 0 0
9:15 pm 21:15 Clear 75 24 68 20 78 78 SE 8 13 30.03 1017 10 16.09344 0 0
9:35 pm 21:35 Clear 73 23 68 20 83 83 SE 7 11 30.03 1017 10 16.09344 0 0
9:55 pm 21:55 Clear 73 23 66 19 78 78 SE 7 11 30.03 1017 10 16.09344 0 0
10:15 pm 22:15 Clear 73 23 66 19 78 78 SE 8 13 30.03 1017 10 16.09344 0 0
10:35 pm 22:35 Clear 72 22 66 19 83 83 SE 8 13 30.03 1017 10 16.09344 0 0
10:55 pm 22:55 Clear 72 22 66 19 83 83 SE 8 13 30.03 1017 10 16.09344 0 0
11:15 pm 23:15 Clear 72 22 66 19 83 83 SE 8 13 30.03 1017 10 16.09344 0 0
11:35 pm 23:35 Clear 72 22 66 19 83 83 SE 9 15 30.03 1017 10 16.09344 0 0
11:55 pm 23:55 Clear 72 22 64 18 78 78 SE 7 11 30.03 1017 10 16.09344 0 0

Powered by AerisWeather